Regional Weather Roundup
Issued by NWS

Home | Current Version | Previous Version | Text Only | Print | Product List | Glossary On
Versions: 1 2 3 4 5 6 7 8 9 10 11 12 13 14 15 16 17 18 19 20 21 22 23 24 25 26 27 28 29 30 31 32 33 34 35 36 37 38 39 40 41 42 43 44 45 46 47 48 49 50
844
ASUS43 KBIS 252310
RWRND

NORTH DAKOTA REGIONAL WEATHER ROUNDUP
NATIONAL WEATHER SERVICE BISMARCK ND
600 PM CDT THU MAY 25 2017

NOTE: "FAIR" INDICATES FEW OR NO CLOUDS BELOW 12,000 FEET WITH NO
SIGNIFICANT WEATHER AND/OR OBSTRUCTIONS TO VISIBILITY.


NDZ001>003-009>011-017-260000-
NORTHWEST NORTH DAKOTA

CITY           SKY/WX    TMP DP  RH WIND       PRES   REMARKS
WILLISTON      CLOUDY    61  41  47 W18G28    29.46R
MINOT          CLOUDY    66  43  43 SW17G28   29.42R
MINOT AFB      CLOUDY    65  45  47 W23G29    29.41R
$$

NDZ018>021-031>035-040>046-260000-
SOUTHWEST NORTH DAKOTA

CITY           SKY/WX    TMP DP  RH WIND       PRES   REMARKS
BISMARCK       FAIR      73  42  32 W18G28    29.48R
DICKINSON      CLOUDY    58  41  53 W25G37    29.53R
GARRISON         N/A     65  43  44 W18       29.45R
HETTINGER ARPT CLOUDY    64  40  41 W26G33    29.57R
$$

NDZ004>008-012>016-024-026-027-054-260000-
NORTHEAST NORTH DAKOTA

CITY           SKY/WX    TMP DP  RH WIND       PRES   REMARKS
GRAND FORKS    CLOUDY    67  49  52 SE17G23   29.48S
GRND FRKS AFB  CLOUDY    66  49  55 S16G23    29.48S
DEVILS LAKE    FAIR      69  49  48 S15       29.43F
$$

NDZ022-023-025-028>030-036>039-047>053-260000-
SOUTHEAST NORTH DAKOTA

CITY           SKY/WX    TMP DP  RH WIND       PRES   REMARKS
FARGO          CLOUDY    68  50  52 S16G26    29.50S
JAMESTOWN      FAIR      71  48  43 VRB6      29.45S
$$





USA.gov is the U.S. government's official web portal to all federal, state and local government web resources and services.